AirNav   Free Bose Alto or Rondo audio sunglasses
 
 915 users online  

34R Hallettsville Municipal Airport
Hallettsville, Texas, USA

GOING TO HALLETTSVILLE?


FAA INFORMATION EFFECTIVE 05 NOVEMBER 2020

Location

FAA Identifier: 34R
Lat/Long: 29-23-23.8500N 096-57-21.8150W
29-23.397500N 096-57.363583W
29.3899583,-96.9560597
(estimated)
Elevation: 277.7 ft. / 84.6 m (surveyed)
Variation: 07E (1985)
From city: 3 miles S of HALLETTSVILLE, TX
Time zone: UTC -6 (UTC -5 during Daylight Saving Time)
Zip code: 77964

Airport Operations

Airport use: Open to the public
Activation date: 03/1967
Control tower: no
ARTCC: HOUSTON CENTER
FSS: MONTGOMERY COUNTY FLIGHT SERVICE STATION
NOTAMs facility: CXO (NOTAM-D service available)
Attendance: UNATNDD
Wind indicator: lighted
Segmented circle: yes
Lights: DUSK-DAWN. MIRL RWY 17/35 PRESET LOW INTST; TO INCR INTST ACTVT - CTAF.
Beacon: white-green (lighted land airport)
Operates sunset to sunrise.

Airport Communications

CTAF: 122.9

Nearby radio navigation aids

VOR radial/distance  VOR name  Freq  Var
VCTr356/29.4VICTORIA VOR/DME109.0006E
ELAr236/37.1EAGLE LAKE VOR/DME116.4008E
IDUr203/39.7INDUSTRY VORTAC110.2008E

Airport Services

Fuel available: 100LL
24 HR SELF-SERVE CREDIT CARD OPN FOR FUEL.
Parking: tiedowns
Bottled oxygen: NONE
Bulk oxygen: NONE

Runway Information

Runway 17/35

Dimensions: 3210 x 60 ft. / 978 x 18 m
Surface: asphalt, in fair condition
Weight bearing capacity: 
Single wheel: 7.0
Runway edge lights: medium intensity
Runway edge markings: RWY MKGS FADED.
RUNWAY 17  RUNWAY 35
Latitude: 29-23.662333N29-23.132667N
Longitude: 096-57.368833W096-57.358333W
Elevation: 277.7 ft.262.4 ft.
Traffic pattern: leftleft
Runway heading: 172 magnetic, 179 true352 magnetic, 359 true
Markings: basic, in poor conditionbasic, in poor condition
Touchdown point: yes, no lightsyes, no lights
Obstructions: 20 ft. trees, 201 ft. from runway, 110 ft. right of centerline34 ft. trees, 540 ft. from runway, 155 ft. left of centerline, 10:1 slope to clear

Airport Ownership and Management from official FAA records

Ownership: Publicly-owned
Owner: CITY OF HALLETTSVILLE
101 N MAIN
HALLETTSVILLE, TX 77964
Phone 361-798-3681
Manager: OTTO CERVEWKA
101 N MAIN
HALLETTSVILLE, TX 77964
Phone 361-798-2201
DIRECTOR OF PUBLIC WORKS.

Airport Operational Statistics

Aircraft based on the field: 7
Single engine airplanes: 7
    
Aircraft operations: avg 40/week *
67% local general aviation
33% transient general aviation
* for 12-month period ending 11 May 2020

Additional Remarks

FOR CD CTC HOUSTON ARTCC AT 281-230-5622.

Instrument Procedures

There are no published instrument procedures at 34R.

Some nearby airports with instrument procedures:

T85 - Yoakum Municipal Airport (11 nm SW)
26R - Jackson County Airport (30 nm SE)
3T5 - Fayette Regional Air Center Airport (31 nm N)
KVCT - Victoria Regional Airport (32 nm S)
KELA - Eagle Lake Airport (35 nm E)
 
Loc | Ops | Rwys | IFR | FBO | Links
Com | Nav | Svcs | Stats | Notes
Area around 34R (Hallettsville Municipal Airport)
 
Road maps at: MapQuest Bing Google
 
Aerial photo
WARNING: Photo may not be current or correct
Aerial photo of 34R (Hallettsville Municipal Airport)
Do you have a better or more recent aerial photo of Hallettsville Municipal Airport that you would like to share? If so, please send us your photo.

 
Sectional chart

 
Airport distance calculator
Flying to Hallettsville Municipal Airport? Find the distance to fly.

From to 34R

Sunrise and sunset
Times for 26-Nov-2020
 Local
(UTC-6)
 Zulu
(UTC)
Morning civil twilight06:3712:37
Sunrise07:0313:03
Sunset17:2823:28
Evening civil twilight17:5423:54

Current date and time
Zulu (UTC)  26-Nov-2020 21:51:55
Local (UTC-6)  26-Nov-2020 15:51:55
 
METAR
K66R 
27nm NE 
261915Z AUTO 00000KT 10SM BKN026 OVC031 24/16 A2999 RMK AO2 T02360156
KT20 
28nm W 
261915Z AUTO 12006KT 10SM SCT028 26/17 A2996 RMK AO2 T02630168
K3T5 
31nm N 
261935Z AUTO 15003KT 10SM BKN020 BKN030 25/17 A2993 RMK AO2 T02540168
KVCT 
31nm S 
261933Z 17004KT 10SM FEW028 BKN033 OVC047 27/19 A2994 RMK AO2 T02720194 $
KELA 
35nm E 
261915Z AUTO 09005KT 10SM OVC026 26/18 A2997 RMK AO2 T02600180
KARM 
43nm E 
261915Z AUTO 11006KT 10SM BKN026 OVC034 27/18 A2997 RMK AO2 T02700179
KPKV 
46nm S 
261922Z AUTO 11011KT 10SM SCT044 27/21 A2995 RMK AO2
KGYB 
47nm N 
261915Z AUTO 16006KT 10SM BKN018 OVC023 26/17 A2998 RMK AO2 T02550173
TAF
KVCT 
31nm S 
261727Z 2618/2718 12007KT P6SM BKN050 TEMPO 2618/2620 BKN025 FM270300 16006KT 6SM BR BKN015 TEMPO 2708/2712 3SM -SHRA BR FM271300 18009KT 6SM -SHRA VCTS OVC035CB
NOTAMs
Click for the latest NOTAMs
NOTAMs are issued by the DoD/FAA and will open in a separate window not controlled by AirNav.

 

 
 

FBO, Fuel Providers, and Aircraft Ground Support

  
 Business Name 
 
 Contact 
 
 Services / Description 
 
Fuel Prices
 
Comments
  
Hallettsville Municipal Airport 361-798-3681
no information available

If you are affiliated with Hallettsville Municipal Airport and would like to show here your services, contact info, web link, logo, and more, click here
100LL
SS $3.85 
 Updated 17-Nov-2020
 
   3 read write
SS=Self service
Update Fuel Prices
 

Would you like to see your business listed on this page?

 If your business provides an interesting product or service to pilots, flight crews, aircraft, or users of the Hallettsville Municipal Airport, you should consider listing it here.  To start the listing process, click on the button below
 
Add a business
 

Other Pages about Hallettsville Municipal Airport

Update a link
 
Copyright © AirNav, LLC. All rights reserved. Privacy Policy  Contact